owner,sensor,date,latitude,longitude,vertical_datum,wind_speed,wind_to_direction,wind_speed_of_gust,qcFlag 
TABS,ioos:station:wmo:42044:1,2002-07-01T04:39:00Z,26.1914,-97.0507,0.0,8.519395518,177.3090938,11.72,'11111222,11111222,11111222' 
TABS,ioos:station:wmo:42044:1,2002-07-01T05:39:00Z,26.1914,-97.0507,0.0,9.590005214,179.9404653,13.75,'11111222,11111222,11111222' 
TABS,ioos:station:wmo:42044:1,2002-07-01T06:09:00Z,26.1914,-97.0507,0.0,9.959041119,184.3768433,12.88,'11111222,11111222,11111222' 
TABS,ioos:station:wmo:42044:1,2002-07-01T07:39:00Z,26.1914,-97.0507,0.0,9.854298554,187.9329502,13.25,'11111222,11111222,11111222' 
TABS,ioos:station:wmo:42044:1,2002-07-01T08:39:00Z,26.1914,-97.0507,0.0,9.142674663,186.1535318,12.4,'11111222,11111222,11111222' 
TABS,ioos:station:wmo:42044:1,2002-07-01T09:39:00Z,26.1914,-97.0507,0.0,8.552110851,181.2732375,11.35,'11111222,11111222,11111222' 
TABS,ioos:station:wmo:42044:1,2002-07-01T10:09:00Z,26.1914,-97.0507,0.0,9.651450668,182.7914601,13.26,'11111222,11111222,11111222' 
TABS,ioos:station:wmo:42044:1,2002-07-01T10:39:00Z,26.1914,-97.0507,0.0,9.639320515,183.6284448,12.51,'11111222,11111222,11111222' 
TABS,ioos:station:wmo:42044:1,2002-07-01T11:09:00Z,26.1914,-97.0507,0.0,9.268635282,182.4736467,12.03,'11111222,11111222,11111222' 
TABS,ioos:station:wmo:42044:1,2002-07-01T11:39:00Z,26.1914,-97.0507,0.0,9.124828766,176.7333124,12.18,'11111222,11111222,11111222' 
TABS,ioos:station:wmo:42044:1,2002-07-01T12:39:00Z,26.1914,-97.0507,0.0,9.942896962,178.6170833,13.22,'11111222,11111222,11111222' 
TABS,ioos:station:wmo:42044:1,2002-07-01T13:09:00Z,26.1914,-97.0507,0.0,9.610332981,180.4771663,12.18,'11111222,11111222,11111222' 
TABS,ioos:station:wmo:42044:1,2002-07-01T14:39:00Z,26.1914,-97.0507,0.0,9.505056549,178.1312263,11.81,'11111222,11111222,11111222' 
TABS,ioos:station:wmo:42044:1,2002-07-01T16:39:00Z,26.1914,-97.0507,0.0,9.170414385,185.3812942,11.72,'11111222,11111222,11111222' 
TABS,ioos:station:wmo:42044:1,2002-07-01T17:09:00Z,26.1914,-97.0507,0.0,8.693888658,181.7139533,11.59,'11111222,11111222,11111222' 
TABS,ioos:station:wmo:42044:1,2002-07-01T18:39:00Z,26.1914,-97.0507,0.0,9.722679672,185.3706911,12.69,'11111222,11111222,11111222' 
TABS,ioos:station:wmo:42044:1,2002-07-01T19:09:00Z,26.1914,-97.0507,0.0,9.143850392,184.13939,12.69,'11111222,11111222,11111222' 
TABS,ioos:station:wmo:42044:1,2002-07-01T20:09:00Z,26.1914,-97.0507,0.0,8.902718686,181.416219,11.43,'11111222,11111222,11111222' 
TABS,ioos:station:wmo:42044:1,2002-07-01T20:39:00Z,26.1914,-97.0507,0.0,9.393066592,181.4643171,12.28,'11111222,11111222,11111222' 
TABS,ioos:station:wmo:42044:1,2002-07-01T22:39:00Z,26.1914,-97.0507,0.0,8.780398624,175.2311609,11.67,'11111222,11111222,11111222' 
TABS,ioos:station:wmo:42044:1,2002-07-02T02:09:00Z,26.1914,-97.0507,0.0,9.461035884,179.1523453,12.08,'11111222,11111222,11111222' 
TABS,ioos:station:wmo:42044:1,2002-07-02T05:39:00Z,26.1914,-97.0507,0.0,8.877640452,186.5328213,12.0,'11111222,11111222,11111222' 
TABS,ioos:station:wmo:42044:1,2002-07-02T06:39:00Z,26.1914,-97.0507,0.0,9.15666424,191.273302,12.14,'11111222,11111222,11111222' 
TABS,ioos:station:wmo:42044:1,2002-07-02T08:09:00Z,26.1914,-97.0507,0.0,9.806349984,192.6050366,12.61,'11111222,11111222,11111222' 
TABS,ioos:station:wmo:42044:1,2002-07-02T09:39:00Z,26.1914,-97.0507,0.0,9.987617333,194.0225076,13.33,'11111222,11111222,11111222' 
TABS,ioos:station:wmo:42044:1,2002-07-02T10:09:00Z,26.1914,-97.0507,0.0,10.81939,195.2181368,13.8,'11111222,11111222,11111222' 
TABS,ioos:station:wmo:42044:1,2002-07-02T11:39:00Z,26.1914,-97.0507,0.0,9.609255955,189.7663854,13.05,'11111222,11111222,11111222' 
TABS,ioos:station:wmo:42044:1,2002-07-02T12:39:00Z,26.1914,-97.0507,0.0,10.28435705,191.4412276,13.15,'11111222,11111222,11111222' 
TABS,ioos:station:wmo:42044:1,2002-07-02T13:09:00Z,26.1914,-97.0507,0.0,9.276254632,188.6806086,12.27,'11111222,11111222,11111222' 
TABS,ioos:station:wmo:42044:1,2002-07-02T13:39:00Z,26.1914,-97.0507,0.0,9.932220296,186.4168325,12.86,'11111222,11111222,11111222' 
TABS,ioos:station:wmo:42044:1,2002-07-02T14:39:00Z,26.1914,-97.0507,0.0,9.938737344,183.5189999,12.69,'11111222,11111222,11111222' 
TABS,ioos:station:wmo:42044:1,2002-07-02T15:39:00Z,26.1914,-97.0507,0.0,10.17468427,187.3976121,12.63,'11111222,11111222,11111222' 
TABS,ioos:station:wmo:42044:1,2002-07-02T17:39:00Z,26.1914,-97.0507,0.0,11.0244501,187.5055424,13.94,'11111222,11111222,11111222' 
TABS,ioos:station:wmo:42044:1,2002-07-02T18:39:00Z,26.1914,-97.0507,0.0,10.39496994,189.5803094,13.49,'11111222,11111222,11111222' 
TABS,ioos:station:wmo:42044:1,2002-07-02T23:09:00Z,26.1914,-97.0507,0.0,8.982944951,181.4673728,12.21,'11111222,11111222,11111222' 
TABS,ioos:station:wmo:42044:1,2002-07-02T23:39:00Z,26.1914,-97.0507,0.0,9.051259581,183.9279664,11.6,'11111222,11111222,11111222' 
TABS,ioos:station:wmo:42044:1,2002-07-03T00:39:00Z,26.1914,-97.0507,0.0,9.844211497,184.0194697,13.52,'11111222,11111222,11111222' 
TABS,ioos:station:wmo:42044:1,2002-07-03T03:09:00Z,26.1914,-97.0507,0.0,10.58120976,190.0144403,13.36,'11111222,11111222,11111222' 
TABS,ioos:station:wmo:42044:1,2002-07-03T03:39:00Z,26.1914,-97.0507,0.0,10.48436932,191.3315514,14.15,'11111222,11111222,11111222' 
TABS,ioos:station:wmo:42044:1,2002-07-03T04:39:00Z,26.1914,-97.0507,0.0,10.04502364,185.4270103,13.47,'11111222,11111222,11111222' 
TABS,ioos:station:wmo:42044:1,2002-07-03T05:39:00Z,26.1914,-97.0507,0.0,10.51753773,186.496801,13.69,'11111222,11111222,11111222' 
TABS,ioos:station:wmo:42044:1,2002-07-03T06:09:00Z,26.1914,-97.0507,0.0,10.64201579,187.9399435,14.36,'11111222,11111222,11111222' 
TABS,ioos:station:wmo:42044:1,2002-07-03T06:39:00Z,26.1914,-97.0507,0.0,11.22569374,191.2500582,14.48,'11111222,11111222,11111222' 
TABS,ioos:station:wmo:42044:1,2002-07-03T07:09:00Z,26.1914,-97.0507,0.0,11.47890674,190.9479243,15.12,'11111222,11111222,11111222' 
TABS,ioos:station:wmo:42044:1,2002-07-03T08:39:00Z,26.1914,-97.0507,0.0,11.77502442,190.9665758,15.12,'11111222,11111222,11111222' 
TABS,ioos:station:wmo:42044:1,2002-07-03T10:39:00Z,26.1914,-97.0507,0.0,11.01683258,189.9840652,14.62,'11111222,11111222,11111222' 
TABS,ioos:station:wmo:42044:1,2002-07-03T12:39:00Z,26.1914,-97.0507,0.0,10.78514719,184.6270764,14.21,'11111222,11111222,11111222' 
TABS,ioos:station:wmo:42044:1,2002-07-03T13:09:00Z,26.1914,-97.0507,0.0,11.67296021,187.9775798,14.96,'11111222,11111222,11111222' 
TABS,ioos:station:wmo:42044:1,2002-07-03T13:39:00Z,26.1914,-97.0507,0.0,11.14725527,190.2314767,14.18,'11111222,11111222,11111222' 
TABS,ioos:station:wmo:42044:1,2002-07-03T14:09:00Z,26.1914,-97.0507,0.0,11.29249751,188.0944168,14.74,'11111222,11111222,11111222' 
TABS,ioos:station:wmo:42044:1,2002-07-03T15:39:00Z,26.1914,-97.0507,0.0,10.67590277,190.4154382,15.57,'11111222,11111222,11111222' 
TABS,ioos:station:wmo:42044:1,2002-07-03T16:39:00Z,26.1914,-97.0507,0.0,10.77181507,188.9728161,14.04,'11111222,11111222,11111222' 
TABS,ioos:station:wmo:42044:1,2002-07-03T18:09:00Z,26.1914,-97.0507,0.0,10.25526694,189.6553935,13.35,'11111222,11111222,11111222' 
TABS,ioos:station:wmo:42044:1,2002-07-03T19:09:00Z,26.1914,-97.0507,0.0,10.0880573,187.5760703,13.29,'11111222,11111222,11111222' 
TABS,ioos:station:wmo:42044:1,2002-07-03T20:39:00Z,26.1914,-97.0507,0.0,9.137773252,185.2116575,12.14,'11111222,11111222,11111222' 
TABS,ioos:station:wmo:42044:1,2002-07-03T21:39:00Z,26.1914,-97.0507,0.0,9.834886883,181.8064938,12.95,'11111222,11111222,11111222' 
TABS,ioos:station:wmo:42044:1,2002-07-03T23:09:00Z,26.1914,-97.0507,0.0,9.819419535,177.4903871,12.78,'11111222,11111222,11111222' 
TABS,ioos:station:wmo:42044:1,2002-07-04T00:39:00Z,26.1914,-97.0507,0.0,9.172377009,184.8157157,12.53,'11111222,11111222,11111222' 
TABS,ioos:station:wmo:42044:1,2002-07-04T04:39:00Z,26.1914,-97.0507,0.0,11.84183263,189.7727297,15.87,'11111222,11111222,11111222' 
TABS,ioos:station:wmo:42044:1,2002-07-04T07:39:00Z,26.1914,-97.0507,0.0,12.36335311,185.8030166,16.37,'11111222,11111222,11111222' 
TABS,ioos:station:wmo:42044:1,2002-07-04T08:09:00Z,26.1914,-97.0507,0.0,12.30924856,185.1272008,16.44,'11111222,11111222,11111222' 
TABS,ioos:station:wmo:42044:1,2002-07-04T08:39:00Z,26.1914,-97.0507,0.0,12.10203702,184.1701454,16.73,'11111222,11111222,11111222' 
TABS,ioos:station:wmo:42044:1,2002-07-04T09:09:00Z,26.1914,-97.0507,0.0,10.64132511,186.6376847,14.41,'11111222,11111222,11111222' 
TABS,ioos:station:wmo:42044:1,2002-07-04T11:09:00Z,26.1914,-97.0507,0.0,10.95381212,184.5032106,14.34,'11111222,11111222,11111222' 
TABS,ioos:station:wmo:42044:1,2002-07-04T12:39:00Z,26.1914,-97.0507,0.0,11.23144247,179.0819261,14.63,'11111222,11111222,11111222' 
TABS,ioos:station:wmo:42044:1,2002-07-04T15:39:00Z,26.1914,-97.0507,0.0,8.828618238,182.5320422,11.7,'11111222,11111222,11111222' 
TABS,ioos:station:wmo:42044:1,2002-07-04T16:39:00Z,26.1914,-97.0507,0.0,8.671868311,178.8108523,11.83,'11111222,11111222,11111222' 
TABS,ioos:station:wmo:42044:1,2002-07-04T21:39:00Z,26.1914,-97.0507,0.0,8.610371653,173.7996533,11.67,'11111222,11111222,11111222' 
TABS,ioos:station:wmo:42044:1,2002-07-04T22:39:00Z,26.1914,-97.0507,0.0,8.267551028,171.6545099,11.45,'11111222,11111222,11111222' 
TABS,ioos:station:wmo:42044:1,2002-07-04T23:09:00Z,26.1914,-97.0507,0.0,7.870406597,169.1614516,10.74,'11111222,11111222,11111222' 
TABS,ioos:station:wmo:42044:1,2002-07-05T02:09:00Z,26.1914,-97.0507,0.0,7.48294728,181.6083556,9.92,'11111222,11111222,11111222' 
TABS,ioos:station:wmo:42044:1,2002-07-05T02:39:00Z,26.1914,-97.0507,0.0,8.322175196,176.9005856,11.49,'11111222,11111222,11111222' 
TABS,ioos:station:wmo:42044:1,2002-07-05T03:09:00Z,26.1914,-97.0507,0.0,9.638723982,170.625862,12.46,'11111222,11111222,11111222' 
TABS,ioos:station:wmo:42044:1,2002-07-05T05:09:00Z,26.1914,-97.0507,0.0,8.940346749,182.756998,12.05,'11111222,11111222,11111222' 
TABS,ioos:station:wmo:42044:1,2002-07-05T05:39:00Z,26.1914,-97.0507,0.0,9.055385138,186.3403874,12.44,'11111222,11111222,11111222' 
TABS,ioos:station:wmo:42044:1,2002-07-05T07:39:00Z,26.1914,-97.0507,0.0,9.615575906,187.6499621,13.17,'11111222,11111222,11111222' 
TABS,ioos:station:wmo:42044:1,2002-07-05T08:39:00Z,26.1914,-97.0507,0.0,9.977399461,188.4145363,13.17,'11111222,11111222,11111222' 
TABS,ioos:station:wmo:42044:1,2002-07-05T09:09:00Z,26.1914,-97.0507,0.0,9.870542032,189.32891,13.04,'11111222,11111222,11111222' 
TABS,ioos:station:wmo:42044:1,2002-07-05T11:09:00Z,26.1914,-97.0507,0.0,8.251024179,179.0974447,11.3,'11111222,11111222,11111222' 
TABS,ioos:station:wmo:42044:1,2002-07-05T11:39:00Z,26.1914,-97.0507,0.0,8.661668431,181.1248073,10.91,'11111222,11111222,11111222' 
TABS,ioos:station:wmo:42044:1,2002-07-05T12:09:00Z,26.1914,-97.0507,0.0,8.800090909,180.2606434,11.56,'11111222,11111222,11111222' 
TABS,ioos:station:wmo:42044:1,2002-07-05T14:09:00Z,26.1914,-97.0507,0.0,7.093553411,187.0450624,10.57,'11111222,11111222,11111222' 
TABS,ioos:station:wmo:42044:1,2002-07-05T15:09:00Z,26.1914,-97.0507,0.0,8.319146591,177.3132167,10.96,'11111222,11111222,11111222' 
TABS,ioos:station:wmo:42044:1,2002-07-05T15:39:00Z,26.1914,-97.0507,0.0,8.082004702,178.7240334,11.28,'11111222,11111222,11111222' 
TABS,ioos:station:wmo:42044:1,2002-07-05T16:09:00Z,26.1914,-97.0507,0.0,8.760205477,180.3926403,11.44,'11111222,11111222,11111222' 
TABS,ioos:station:wmo:42044:1,2002-07-05T18:39:00Z,26.1914,-97.0507,0.0,6.991859552,173.0175094,9.16,'11111222,11111222,11111222' 
TABS,ioos:station:wmo:42044:1,2002-07-05T21:39:00Z,26.1914,-97.0507,0.0,6.684579269,166.5045087,10.29,'11111222,11111222,11111222' 
TABS,ioos:station:wmo:42044:1,2002-07-05T22:09:00Z,26.1914,-97.0507,0.0,5.816734479,165.0561381,8.36,'11111222,11111222,11111222' 
TABS,ioos:station:wmo:42044:1,2002-07-05T23:09:00Z,26.1914,-97.0507,0.0,7.146726523,159.8664631,9.69,'11111222,11111222,11111222' 
TABS,ioos:station:wmo:42044:1,2002-07-05T23:39:00Z,26.1914,-97.0507,0.0,7.115124735,161.5653047,9.62,'11111222,11111222,11111222' 
TABS,ioos:station:wmo:42044:1,2002-07-06T00:09:00Z,26.1914,-97.0507,0.0,7.250744789,159.2407429,10.04,'11111222,11111222,11111222' 
TABS,ioos:station:wmo:42044:1,2002-07-06T01:09:00Z,26.1914,-97.0507,0.0,6.868893652,156.308797,9.45,'11111222,11111222,11111222' 
TABS,ioos:station:wmo:42044:1,2002-07-06T05:39:00Z,26.1914,-97.0507,0.0,5.45066051,169.5355549,7.56,'11111222,11111222,11111222' 
TABS,ioos:station:wmo:42044:1,2002-07-06T06:09:00Z,26.1914,-97.0507,0.0,4.738027016,170.2794654,6.9,'11111222,11111222,11111222' 
TABS,ioos:station:wmo:42044:1,2002-07-06T07:09:00Z,26.1914,-97.0507,0.0,5.192119028,172.6972746,7.14,'11111222,11111222,11111222' 
TABS,ioos:station:wmo:42044:1,2002-07-06T08:09:00Z,26.1914,-97.0507,0.0,5.254188805,172.5641185,7.23,'11111222,11111222,11111222' 
TABS,ioos:station:wmo:42044:1,2002-07-06T08:39:00Z,26.1914,-97.0507,0.0,6.462507253,178.4041503,9.06,'11111222,11111222,11111222' 
TABS,ioos:station:wmo:42044:1,2002-07-06T09:09:00Z,26.1914,-97.0507,0.0,5.52326896,172.8237438,8.47,'11111222,11111222,11111222' 
TABS,ioos:station:wmo:42044:1,2002-07-06T09:39:00Z,26.1914,-97.0507,0.0,5.951041926,175.1806115,8.31,'11111222,11111222,11111222' 
TABS,ioos:station:wmo:42044:1,2002-07-06T11:09:00Z,26.1914,-97.0507,0.0,5.289725891,173.923185,8.03,'11111222,11111222,11111222' 
TABS,ioos:station:wmo:42044:1,2002-07-06T12:09:00Z,26.1914,-97.0507,0.0,4.681078935,166.4092938,6.81,'11111222,11111222,11111222' 
TABS,ioos:station:wmo:42044:1,2002-07-06T14:39:00Z,26.1914,-97.0507,0.0,5.026987169,157.6697236,7.04,'11111222,11111222,11111222' 
TABS,ioos:station:wmo:42044:1,2002-07-06T16:39:00Z,26.1914,-97.0507,0.0,5.875312758,163.3850712,8.11,'11111222,11111222,11111222' 
TABS,ioos:station:wmo:42044:1,2002-07-06T17:39:00Z,26.1914,-97.0507,0.0,6.470023184,161.6213122,8.63,'11111222,11111222,11111222' 
TABS,ioos:station:wmo:42044:1,2002-07-06T18:09:00Z,26.1914,-97.0507,0.0,6.517008516,166.2412003,8.55,'11111222,11111222,11111222' 
TABS,ioos:station:wmo:42044:1,2002-07-06T19:09:00Z,26.1914,-97.0507,0.0,6.754628043,161.6189523,8.75,'11111222,11111222,11111222' 
TABS,ioos:station:wmo:42044:1,2002-07-06T20:09:00Z,26.1914,-97.0507,0.0,6.726492399,160.9996397,8.87,'11111222,11111222,11111222' 
TABS,ioos:station:wmo:42044:1,2002-07-06T20:39:00Z,26.1914,-97.0507,0.0,6.849525531,169.7402789,8.93,'11111222,11111222,11111222' 
TABS,ioos:station:wmo:42044:1,2002-07-06T22:09:00Z,26.1914,-97.0507,0.0,6.962190747,171.7421054,9.15,'11111222,11111222,11111222' 
TABS,ioos:station:wmo:42044:1,2002-07-07T01:39:00Z,26.1914,-97.0507,0.0,5.468573854,162.6587268,7.62,'11111222,11111222,11111222' 
TABS,ioos:station:wmo:42044:1,2002-07-07T02:09:00Z,26.1914,-97.0507,0.0,5.576818089,153.7109,7.36,'11111222,11111222,11111222' 
TABS,ioos:station:wmo:42044:1,2002-07-07T03:09:00Z,26.1914,-97.0507,0.0,4.604400069,163.7300888,6.22,'11111222,11111222,11111222' 
TABS,ioos:station:wmo:42044:1,2002-07-07T04:09:00Z,26.1914,-97.0507,0.0,4.348850423,171.4043191,6.45,'11111222,11111222,11111222' 
TABS,ioos:station:wmo:42044:1,2002-07-07T04:39:00Z,26.1914,-97.0507,0.0,4.446268098,169.3726641,6.02,'11111222,11111222,11111222' 
TABS,ioos:station:wmo:42044:1,2002-07-07T05:39:00Z,26.1914,-97.0507,0.0,3.694766569,174.8759917,5.3,'11111222,11111222,11111222' 
TABS,ioos:station:wmo:42044:1,2002-07-07T06:39:00Z,26.1914,-97.0507,0.0,3.904625462,177.2110893,5.4,'11111222,11111222,11111222' 
TABS,ioos:station:wmo:42044:1,2002-07-07T07:39:00Z,26.1914,-97.0507,0.0,4.067456208,191.1996139,5.89,'11111222,11111222,11111222' 
TABS,ioos:station:wmo:42044:1,2002-07-07T10:39:00Z,26.1914,-97.0507,0.0,1.886080592,213.1004119,3.28,'11111222,11111222,11111222' 
TABS,ioos:station:wmo:42044:1,2002-07-07T11:39:00Z,26.1914,-97.0507,0.0,0.979489663,242.6501882,2.67,'11111222,11111222,11111222' 
TABS,ioos:station:wmo:42044:1,2002-07-07T12:09:00Z,26.1914,-97.0507,0.0,0.148660687,312.2735902,1.52,'11111222,11111222,11111222' 
TABS,ioos:station:wmo:42044:1,2002-07-07T12:39:00Z,26.1914,-97.0507,0.0,0.690796642,337.8903929,2.82,'11111222,11111222,11111222' 
TABS,ioos:station:wmo:42044:1,2002-07-07T15:39:00Z,26.1914,-97.0507,0.0,3.259601203,339.3409278,4.53,'11111222,11111222,11111222' 
TABS,ioos:station:wmo:42044:1,2002-07-07T17:39:00Z,26.1914,-97.0507,0.0,5.248895122,343.394683,6.62,'11111222,11111222,11111222' 
TABS,ioos:station:wmo:42044:1,2002-07-07T18:39:00Z,26.1914,-97.0507,0.0,5.064484179,344.0699708,6.33,'11111222,11111222,11111222' 
TABS,ioos:station:wmo:42044:1,2002-07-07T21:09:00Z,26.1914,-97.0507,0.0,7.006975096,353.3616238,8.5,'11111222,11111222,11111222' 
TABS,ioos:station:wmo:42044:1,2002-07-07T22:09:00Z,26.1914,-97.0507,0.0,5.982390826,352.4114928,8.12,'11111222,11111222,11111222' 
TABS,ioos:station:wmo:42044:1,2002-07-07T22:39:00Z,26.1914,-97.0507,0.0,6.461779941,356.5396144,8.24,'11111222,11111222,11111222' 
TABS,ioos:station:wmo:42044:1,2002-07-08T00:09:00Z,26.1914,-97.0507,0.0,6.24,359.9997895,7.97,'11111222,11144222,11111222' 
TABS,ioos:station:wmo:42044:1,2002-07-08T00:39:00Z,26.1914,-97.0507,0.0,7.324923208,6.34860443,9.51,'11111222,11111222,11111222' 
TABS,ioos:station:wmo:42044:1,2002-07-08T01:09:00Z,26.1914,-97.0507,0.0,6.528560331,5.361063209,8.81,'11111222,11111222,11111222' 
TABS,ioos:station:wmo:42044:1,2002-07-08T02:09:00Z,26.1914,-97.0507,0.0,7.384558213,6.2971254,9.43,'11111222,11111222,11111222' 
TABS,ioos:station:wmo:42044:1,2002-07-08T03:39:00Z,26.1914,-97.0507,0.0,6.435409855,26.48514606,8.58,'11111222,11111222,11111222' 
TABS,ioos:station:wmo:42044:1,2002-07-08T04:09:00Z,26.1914,-97.0507,0.0,5.118456799,19.99241295,7.22,'11111222,11111222,11111222' 
TABS,ioos:station:wmo:42044:1,2002-07-08T05:09:00Z,26.1914,-97.0507,0.0,6.222057538,24.09311962,8.08,'11111222,11111222,11111222' 
TABS,ioos:station:wmo:42044:1,2002-07-08T06:09:00Z,26.1914,-97.0507,0.0,5.173490118,29.78581128,7.1,'11111222,11111222,11111222' 
TABS,ioos:station:wmo:42044:1,2002-07-08T07:09:00Z,26.1914,-97.0507,0.0,5.576029053,37.05455758,8.26,'11111222,11111222,11111222' 
TABS,ioos:station:wmo:42044:1,2002-07-08T08:09:00Z,26.1914,-97.0507,0.0,6.22222629,47.67024183,8.94,'11111222,11111222,11111222' 
TABS,ioos:station:wmo:42044:1,2002-07-08T08:39:00Z,26.1914,-97.0507,0.0,5.701903191,41.65826603,7.86,'11111222,11111222,11111222' 
TABS,ioos:station:wmo:42044:1,2002-07-08T11:39:00Z,26.1914,-97.0507,0.0,5.418874422,15.95967177,7.16,'11111222,11111222,11111222' 
TABS,ioos:station:wmo:42044:1,2002-07-08T13:09:00Z,26.1914,-97.0507,0.0,6.388059173,4.309056973,8.44,'11111222,11111222,11111222' 
TABS,ioos:station:wmo:42044:1,2002-07-08T15:09:00Z,26.1914,-97.0507,0.0,6.767547562,5.171211396,8.67,'11111222,11111222,11111222' 
TABS,ioos:station:wmo:42044:1,2002-07-08T17:39:00Z,26.1914,-97.0507,0.0,6.807767622,61.1003596,12.99,'11111222,11111222,11111222' 
TABS,ioos:station:wmo:42044:1,2002-07-08T18:39:00Z,26.1914,-97.0507,0.0,3.466251578,8.293507493,5.79,'11111222,11111222,11111222' 
TABS,ioos:station:wmo:42044:1,2002-07-08T19:09:00Z,26.1914,-97.0507,0.0,2.961688707,1.934717326,4.66,'11111222,11111222,11111222' 
TABS,ioos:station:wmo:42044:1,2002-07-08T19:39:00Z,26.1914,-97.0507,0.0,7.088652904,62.89237613,10.72,'11111222,11111222,11111222' 
TABS,ioos:station:wmo:42044:1,2002-07-08T20:39:00Z,26.1914,-97.0507,0.0,6.948294755,52.60201613,9.73,'11111222,11111222,11111222' 
TABS,ioos:station:wmo:42044:1,2002-07-08T22:39:00Z,26.1914,-97.0507,0.0,7.009600559,20.63232115,10.12,'11111222,11111222,11111222' 
TABS,ioos:station:wmo:42044:1,2002-07-08T23:09:00Z,26.1914,-97.0507,0.0,8.505727482,14.0850127,11.41,'11111222,11111222,11111222' 
TABS,ioos:station:wmo:42044:1,2002-07-08T23:39:00Z,26.1914,-97.0507,0.0,8.988748522,14.56163356,11.47,'11111222,11111222,11111222' 
TABS,ioos:station:wmo:42044:1,2002-07-09T01:39:00Z,26.1914,-97.0507,0.0,6.974532242,3.699100383,9.65,'11111222,11111222,11111222' 
TABS,ioos:station:wmo:42044:1,2002-07-09T03:39:00Z,26.1914,-97.0507,0.0,6.09119036,19.26759508,9.97,'11111222,11111222,11111222' 
TABS,ioos:station:wmo:42044:1,2002-07-09T04:09:00Z,26.1914,-97.0507,0.0,4.920416649,16.40900561,7.84,'11111222,11111222,11111222' 
TABS,ioos:station:wmo:42044:1,2002-07-09T05:39:00Z,26.1914,-97.0507,0.0,6.429821148,9.037251149,8.36,'11111222,11111222,11111222' 
TABS,ioos:station:wmo:42044:1,2002-07-09T09:09:00Z,26.1914,-97.0507,0.0,4.140736649,320.3891939,5.72,'11111222,11111222,11111222' 
TABS,ioos:station:wmo:42044:1,2002-07-09T11:39:00Z,26.1914,-97.0507,0.0,3.617803201,290.8896464,5.51,'11111222,11111222,11111222' 
TABS,ioos:station:wmo:42044:1,2002-07-09T12:39:00Z,26.1914,-97.0507,0.0,2.206581066,133.8986121,5.1,'11111222,11111222,11111222' 
TABS,ioos:station:wmo:42044:1,2002-07-09T14:09:00Z,26.1914,-97.0507,0.0,3.916184367,86.77917875,6.59,'11111222,11111222,11111222' 
TABS,ioos:station:wmo:42044:1,2002-07-09T15:39:00Z,26.1914,-97.0507,0.0,4.6322025,135.9624422,7.16,'11111222,11111222,11111222' 
TABS,ioos:station:wmo:42044:1,2002-07-09T16:09:00Z,26.1914,-97.0507,0.0,3.640467003,60.54758751,6.13,'11111222,11111222,11111222' 
TABS,ioos:station:wmo:42044:1,2002-07-09T16:39:00Z,26.1914,-97.0507,0.0,3.740655023,61.58477556,5.64,'11111222,11111222,11111222' 
TABS,ioos:station:wmo:42044:1,2002-07-09T17:39:00Z,26.1914,-97.0507,0.0,4.687280662,97.23155161,7.01,'11111222,11111222,11111222' 
TABS,ioos:station:wmo:42044:1,2002-07-09T18:39:00Z,26.1914,-97.0507,0.0,6.494259003,133.2532777,9.96,'11111222,11111222,11111222' 
TABS,ioos:station:wmo:42044:1,2002-07-09T20:39:00Z,26.1914,-97.0507,0.0,8.948659117,139.8504217,14.9,'11111222,11111222,11111222' 
TABS,ioos:station:wmo:42044:1,2002-07-10T00:09:00Z,26.1914,-97.0507,0.0,8.653323061,160.5602211,11.79,'11111222,11111222,11111222' 
TABS,ioos:station:wmo:42044:1,2002-07-10T00:39:00Z,26.1914,-97.0507,0.0,7.919122426,156.6401714,11.94,'11111222,11111222,11111222' 
TABS,ioos:station:wmo:42044:1,2002-07-10T04:39:00Z,26.1914,-97.0507,0.0,9.142428561,175.9860442,12.36,'11111222,11111222,11111222' 
TABS,ioos:station:wmo:42044:1,2002-07-10T06:09:00Z,26.1914,-97.0507,0.0,9.43996822,174.1024104,13.89,'11111222,11111222,11111222' 
TABS,ioos:station:wmo:42044:1,2002-07-10T07:39:00Z,26.1914,-97.0507,0.0,9.435465012,183.2810836,12.73,'11111222,11111222,11111222' 
TABS,ioos:station:wmo:42044:1,2002-07-10T08:09:00Z,26.1914,-97.0507,0.0,9.026150896,187.4480213,12.52,'11111222,11111222,11111222' 
TABS,ioos:station:wmo:42044:1,2002-07-10T08:39:00Z,26.1914,-97.0507,0.0,8.561705438,187.9220846,12.57,'11111222,11111222,11111222' 
TABS,ioos:station:wmo:42044:1,2002-07-10T09:09:00Z,26.1914,-97.0507,0.0,8.355333626,186.5978601,12.0,'11111222,11111222,11111222' 
TABS,ioos:station:wmo:42044:1,2002-07-10T10:39:00Z,26.1914,-97.0507,0.0,6.855829636,185.8604737,9.51,'11111222,11111222,11111222' 
TABS,ioos:station:wmo:42044:1,2002-07-10T11:09:00Z,26.1914,-97.0507,0.0,7.007089267,185.8979239,10.29,'11111222,11111222,11111222' 
TABS,ioos:station:wmo:42044:1,2002-07-10T12:39:00Z,26.1914,-97.0507,0.0,7.587021814,197.6470224,11.72,'11111222,11111222,11111222' 
TABS,ioos:station:wmo:42044:1,2002-07-10T14:09:00Z,26.1914,-97.0507,0.0,5.773872184,183.9726971,8.37,'11111222,11111222,11111222' 
TABS,ioos:station:wmo:42044:1,2002-07-10T16:09:00Z,26.1914,-97.0507,0.0,7.18902636,197.4017388,10.24,'11111222,11111222,11111222' 
TABS,ioos:station:wmo:42044:1,2002-07-10T17:09:00Z,26.1914,-97.0507,0.0,3.332221481,191.9508298,5.2,'11111222,11111222,11111222' 
TABS,ioos:station:wmo:42044:1,2002-07-10T18:09:00Z,26.1914,-97.0507,0.0,4.112736315,182.0903647,6.01,'11111222,11111222,11111222' 
TABS,ioos:station:wmo:42044:1,2002-07-10T19:09:00Z,26.1914,-97.0507,0.0,4.067284106,162.5453835,5.7,'11111222,11111222,11111222' 
TABS,ioos:station:wmo:42044:1,2002-07-10T19:39:00Z,26.1914,-97.0507,0.0,3.776373922,166.3687793,5.44,'11111222,11111222,11111222' 
TABS,ioos:station:wmo:42044:1,2002-07-10T20:09:00Z,26.1914,-97.0507,0.0,4.16194666,160.7816746,6.06,'11111222,11111222,11111222' 
TABS,ioos:station:wmo:42044:1,2002-07-10T23:39:00Z,26.1914,-97.0507,0.0,6.789698079,170.6766405,8.97,'11111222,11111222,11111222' 